Date String (YYYY-MM-DD hh:mm:ss) UTC,Instrument flags,absolute air pressure of the measurement (hPa),sample flow rate (lpm),inlet stack bypass flow (lpm),air temperature of the measurement (°C),ambient temperature measured by the external sensor (°C),aerosol sample conditioner tube jacket temperature (°C),OPC LED temperature (°C),internal box temperature (°C),relative humidity of the measurement (%),span deviation,mass concentration of particles derived from Lorenz-Mie calculation of OPC scattering (μg/m³),mass concentration of particles derived from Lorenz-Mie calculation of OPC scattering (μg/m³),mass concentration of particles derived from Lorenz-Mie calculation of OPC scattering (μg/m³)
DateTimeUTC,F1_M11,P_M11,Q1_M11,Q2_M11,T1_M11,T2_M11,T3_M11,T4_M11,T5_M11,U1_M11,ZSPAN_M11,X2_M11,X0_M11,X1_M11
2024-05-15 19:00:00,SystemResetWarning,0827.7,5.00,000.00,024.2,021.8,000.0,032.7,025.2,029.7,0002.7,0006.22,0013.27,0005.57
2024-05-15 19:01:00,SystemResetWarning,0827.7,5.02,000.00,024.0,021.9,000.0,032.6,025.1,029.4,0003.1,0006.21,0012.96,0005.57
2024-05-15 19:02:00,SystemResetWarning,0827.8,5.00,000.00,024.0,022.2,000.0,032.5,025.3,029.3,0003.2,0006.21,0012.47,0005.57
2024-05-15 19:03:00,SystemResetWarning,0827.8,4.99,000.00,024.0,022.5,000.0,032.4,025.5,029.0,0002.4,0006.21,0011.96,0005.57
2024-05-15 19:04:00,SystemResetWarning,0827.8,5.00,000.00,024.1,022.8,000.0,032.4,025.7,029.3,0002.7,0006.22,0011.68,0005.59
2024-05-15 19:05:00,SystemResetWarning,0827.8,5.00,000.00,024.1,023.1,000.0,032.4,025.9,029.8,0001.9,0006.21,0011.79,0005.58
2024-05-15 19:06:00,SystemResetWarning,0827.8,5.00,000.00,024.2,023.3,000.0,032.4,026.0,029.5,0001.4,0006.20,0011.72,0005.56
2024-05-15 19:07:00,SystemResetWarning,0827.8,5.01,000.00,024.3,023.5,000.0,032.4,026.1,029.2,0001.2,0006.21,0011.45,0005.59
2024-05-15 19:08:00,SystemResetWarning,0827.8,4.99,000.00,024.3,023.7,000.0,032.4,026.2,029.7,0001.3,0006.21,0011.55,0005.61
2024-05-15 19:09:00,SystemResetWarning,0827.8,5.00,000.00,024.4,023.9,000.0,032.5,026.3,029.5,0001.3,0006.24,0011.15,0005.63
2024-05-15 19:10:00,SystemResetWarning,0827.7,4.99,000.00,024.4,024.0,000.0,032.5,026.3,028.9,0001.0,0006.30,0010.73,0005.65
2024-05-15 19:11:00,SystemResetWarning,0827.7,4.99,000.00,024.5,024.1,000.0,032.5,026.4,028.6,0001.2,0006.37,0010.99,0005.70
2024-05-15 19:12:00,SystemResetWarning,0827.7,4.99,000.00,024.6,024.2,000.0,032.6,026.5,029.1,0001.3,0006.42,0011.09,0005.74
2024-05-15 19:13:00,SystemResetWarning,0827.7,5.00,000.00,024.6,023.8,000.0,032.6,026.2,029.5,0001.6,0006.39,0011.11,0005.75
2024-05-15 19:14:00,SystemResetWarning,0827.7,5.00,000.00,024.3,022.1,000.0,032.7,025.3,029.2,0002.0,0006.40,0011.04,0005.75
2024-05-15 19:15:00,SystemResetWarning,0827.7,5.01,000.00,024.1,021.8,000.0,032.7,025.2,029.5,0001.8,0006.41,0011.45,0005.75
2024-05-15 19:16:00,SystemResetWarning,0827.7,5.01,000.00,024.0,022.1,000.0,032.6,025.3,029.8,0002.1,0006.40,0011.70,0005.78
2024-05-15 19:17:00,SystemResetWarning,0827.7,4.99,000.00,024.1,022.4,000.0,032.5,025.5,029.6,0002.7,0006.45,0011.88,0005.82
2024-05-15 19:18:00,SystemResetWarning,0827.7,4.99,000.00,024.1,022.8,000.0,032.5,025.6,029.9,0003.0,0006.46,0012.48,0005.84
2024-05-15 19:19:00,SystemResetWarning,0827.7,5.01,000.00,024.1,023.0,000.0,032.4,025.9,030.0,0002.8,0006.47,0012.39,0005.84
2024-05-15 19:20:00,SystemResetWarning,0827.7,5.01,000.00,024.2,023.3,000.0,032.4,026.0,028.8,0002.8,0006.47,0012.22,0005.84
2024-05-15 19:21:00,SystemResetWarning,0827.7,5.00,000.00,024.3,023.5,000.0,032.4,026.1,028.3,0002.8,0006.43,0012.00,0005.85
2024-05-15 19:22:00,SystemResetWarning,0827.7,4.99,000.00,024.3,023.7,000.0,032.5,026.2,028.5,0002.4,0006.43,0011.87,0005.87
2024-05-15 19:23:00,SystemResetWarning,0827.7,4.99,000.00,024.4,023.8,000.0,032.5,026.3,028.2,0002.3,0006.45,0012.10,0005.87
2024-05-15 19:24:00,SystemResetWarning,0827.7,5.00,000.00,024.5,024.0,000.0,032.5,026.4,028.7,0002.4,0006.54,0012.21,0005.91
2024-05-15 19:25:00,SystemResetWarning,0827.7,5.00,000.00,024.5,024.1,000.0,032.5,026.4,028.5,0001.7,0006.55,0012.61,0005.92
2024-05-15 19:26:00,SystemResetWarning,0827.7,5.00,000.00,024.6,024.2,000.0,032.6,026.5,028.1,0001.7,0006.57,0012.41,0005.93
2024-05-15 19:27:00,SystemResetWarning,0827.7,4.99,000.00,024.6,023.5,000.0,032.7,026.1,027.9,0002.7,0006.64,0012.67,0005.97
2024-05-15 19:28:00,SystemResetWarning,0827.7,5.01,000.00,024.3,021.8,000.0,032.7,025.3,028.9,0002.6,0006.68,0012.93,0006.00
2024-05-15 19:29:00,SystemResetWarning,0827.7,5.01,000.00,024.1,021.8,000.0,032.7,025.1,029.1,0001.8,0006.65,0013.35,0005.98
2024-05-15 19:30:00,SystemResetWarning,0827.7,4.98,000.00,024.0,022.1,000.0,032.6,025.3,029.0,0002.2,0006.69,0013.44,0005.97
2024-05-15 19:31:00,SystemResetWarning,0827.7,5.01,000.00,024.0,022.4,000.0,032.5,025.5,028.6,0002.3,0006.73,0013.45,0006.02
2024-05-15 19:32:00,SystemResetWarning,0827.7,5.01,000.00,024.1,022.8,000.0,032.5,025.7,028.7,0002.5,0006.78,0013.55,0006.05
2024-05-15 19:33:00,SystemResetWarning,0827.7,5.00,000.00,024.2,023.1,000.0,032.4,025.9,029.3,0002.5,0006.79,0013.60,0006.06
2024-05-15 19:34:00,SystemResetWarning,0827.7,5.01,000.00,024.2,023.3,000.0,032.4,026.0,028.8,0003.0,0006.76,0013.36,0006.05
2024-05-15 19:35:00,SystemResetWarning,0827.7,5.00,000.00,024.3,023.5,000.0,032.4,026.1,028.8,0002.8,0006.73,0013.53,0006.06
2024-05-15 19:36:00,SystemResetWarning,0827.7,5.01,000.00,024.3,023.7,000.0,032.5,026.2,028.0,0001.4,0006.76,0014.01,0006.06
2024-05-15 19:37:00,SystemResetWarning,0827.7,5.00,000.00,024.4,023.8,000.0,032.5,026.3,027.8,0003.3,0006.81,0014.23,0006.08
2024-05-15 19:38:00,SystemResetWarning,0827.7,5.00,000.00,024.5,024.0,000.0,032.5,026.4,028.1,0002.5,0006.79,0013.78,0006.08
2024-05-15 19:39:00,SystemResetWarning,0827.7,4.99,000.00,024.5,024.1,000.0,032.5,026.5,028.0,0002.2,0006.75,0013.80,0006.06
2024-05-15 19:40:00,SystemResetWarning,0827.7,5.01,000.00,024.6,024.2,000.0,032.6,026.5,027.9,0003.0,0006.76,0012.97,0006.07
2024-05-15 19:41:00,SystemResetWarning,0827.7,5.00,000.00,024.6,023.3,000.0,032.7,026.1,028.1,0003.0,0006.74,0012.68,0006.08
2024-05-15 19:42:00,SystemResetWarning,0827.5,5.00,000.00,024.3,021.9,000.0,032.7,025.3,029.0,0003.0,0006.70,0013.06,0006.04
2024-05-15 19:43:00,SystemResetWarning,0827.5,5.01,000.00,024.1,022.0,000.0,032.7,025.2,029.2,0002.7,0006.69,0013.14,0006.00
2024-05-15 19:44:00,SystemResetWarning,0827.6,5.01,000.00,024.1,022.3,000.0,032.6,025.4,029.3,0003.2,0006.66,0013.31,0005.97
2024-05-15 19:45:00,SystemResetWarning,0827.6,4.98,000.00,024.1,022.6,000.0,032.5,025.6,029.0,0002.5,0006.72,0013.45,0006.01
2024-05-15 19:46:00,SystemResetWarning,0827.6,5.00,000.00,024.1,022.9,000.0,032.5,025.8,029.0,0002.1,0006.79,0013.35,0006.03
2024-05-15 19:47:00,SystemResetWarning,0827.6,5.01,000.00,024.2,023.1,000.0,032.5,026.0,029.8,0002.2,0006.82,0012.58,0006.05
2024-05-15 19:48:00,SystemResetWarning,0827.5,5.00,000.00,024.3,023.4,000.0,032.5,026.1,030.0,0002.3,0006.80,0012.50,0006.04
2024-05-15 19:49:00,SystemResetWarning,0827.6,4.99,000.00,024.3,023.6,000.0,032.5,026.1,029.1,0002.2,0006.78,0012.37,0006.01
2024-05-15 19:50:00,SystemResetWarning,0827.5,5.00,000.00,024.4,023.8,000.0,032.5,026.3,028.8,0001.7,0006.80,0012.20,0006.02
2024-05-15 19:51:00,SystemResetWarning,0827.5,5.00,000.00,024.5,023.9,000.0,032.5,026.3,029.3,0000.7,0006.86,0012.38,0006.07
2024-05-15 19:52:00,SystemResetWarning,0827.6,5.00,000.00,024.5,024.1,000.0,032.5,026.4,029.3,-000.1,0006.96,0012.62,0006.16
2024-05-15 19:53:00,SystemResetWarning,0827.4,5.00,000.00,024.6,024.2,000.0,032.6,026.5,028.7,-000.0,0007.04,0012.41,0006.26
2024-05-15 19:54:00,SystemResetWarning,0827.7,4.99,000.00,024.6,023.8,000.0,032.6,026.3,029.1,0000.2,0007.15,0012.54,0006.38
2024-05-15 19:55:00,SystemResetWarning,0827.4,5.01,000.00,024.3,022.1,000.0,032.7,025.4,029.5,0000.2,0007.22,0013.11,0006.45
2024-05-15 19:56:00,SystemResetWarning,0827.4,5.02,000.00,024.1,021.8,000.0,032.8,025.1,029.2,0000.1,0007.24,0013.08,0006.49
2024-05-15 19:57:00,SystemResetWarning,0827.4,4.99,000.00,024.0,022.1,000.0,032.6,025.3,029.8,-000.2,0007.24,0012.95,0006.54
2024-05-15 19:58:00,SystemResetWarning,0827.5,5.00,000.00,024.1,022.5,000.0,032.6,025.5,030.2,-000.3,0007.26,0012.89,0006.57
2024-05-15 19:59:00,SystemResetWarning,0827.4,5.01,000.00,024.1,022.8,000.0,032.5,025.7,029.6,-000.5,0007.30,0012.86,0006.62
